THOR BURNER 2 R/B, 2877

Orbit data source: Space-Track

THOR BURNER 2 R/B, 2877 is space debris in LEO originally from a launch on Thu, 29 Jun 1967 UTC launched from the Air Force Western Test Range (AFWTR). Debris objects in space refer to the collection of defunct objects orbiting the Earth. Examples of debris include non-operational satellites, rocket bodies, and fragments generated from explosions, collisions, or faulty payload assembly.

Loading next visibility...
Identifier
2877, 1967-065C
Orbit
LEO
Last TLE update
11 hours ago
Origin
Manufacturer
BOKT/THKE
Mission
Spacecraft
Bus & Motor
STAR 13, STAR 13
Mass
58 kg wet, 25 kg dry
Launch date (UTC)
1967-06-29 (58 years ago)
Launch vehicle
Unknown
Launch site
Air Force Western Test Range (AFWTR)
Object type
Payload
Rocket body
Debris
Shape & HBR
Sphere + 1 Nozzle, 0.7 m
Radar Cross Section
0.385 m², Medium (>0.1 m² and < 1m²)

Expand to show TLE details & history

TLE from 11 hours ago
0 THOR BURNER 2 R/B
1 02877U 67065C   25189.80945613 -.00000007  00000-0 -52032-2 0  9992
2 02877  90.0059 313.7651 0066937  62.0712 298.6882  8.36608798772266
Epoch: 2025-07-08T19:25Z
TLE epoch observation values (Epoch: 2025-07-08T19:25:37.009Z)
Latitude
0.00003°
Longitude
95.36178°
Altitude
3,841.34 km
Speed
6.256 km/s
True Right ascension
20h 55m 03s
True Declination
0° 00' 00"
Sunlit
Object was in full shadow at epoch
Visualization orbit readout
Latitude
-24.67916°
Longitude
95.36458°
Altitude
3,875.296 km
Speed
6.237 km/s
Apparent Right ascension
22h 39m 33s
Apparent Declination
-55° 40' 12"
Sunlit
Object is in full shadow
Visualization observer readout
Local Sidereal Time
18:51:59
Azimuth
150.384° SSE
Elevation
-17.075°
Doppler factor
1
Orbital elements
Apogee altitude
3,938.231 km
Perigee altitude
3,801.04 km
Semi-major axis
10,247.772 km
Eccentricity
0.00669
Inclination
90.0059°
RAAN
313.7651°
Arg. of periapsis
62.0712°
True anomaly
Unknown
Mean anomaly
298.6882°
Eccentric anomaly
Unknown
Mean motion
2.09218 °/min
Orbital period
172.07 mins
BSTAR
-0.0052032
Loading maneuver chart data...
Loading SW <> Apogee altitude chart data...
Loading historical data...
Loading historical data...
Loading historical data...
Loading historical data...
Loading historical data...
Loading historical data...
Loading historical data...
Other satellites on launch #65 in the year 1967 (1967-06-29 UTC)

THOR BURNER 2 R/B Visibility forecast

Observer location: undefined°, undefined°

Span
Click to sort rows by Start time (UTC) header in descending order
Start Az.
Max El. time (UTC)
Max El. Az.
Max El.
End time (UTC)
End Az.
35 mins2025-07-09 06:57:36.440Z136.448° SSE2025-07-09 07:14:36.440Z72.573° E36.583°2025-07-09 07:32:36.440Z4.191° NNE
36 mins2025-07-09 09:48:36.440Z206.142° SW2025-07-09 10:05:36.440Z278.401° WNW38.212°2025-07-09 10:24:36.440Z354.119° N
37 mins2025-07-09 19:11:36.440Z8.012° NNE2025-07-09 19:29:36.440Z86.542° E39.184°2025-07-09 19:48:36.440Z159.296° S
33 mins2025-07-09 22:03:36.440Z353.182° N2025-07-09 22:19:36.440Z290.34° WNW35.751°2025-07-09 22:36:36.440Z226.433° WSW
27 mins2025-07-10 06:01:36.440Z107.144° ESE2025-07-10 06:14:36.440Z59.716° ENE26.255°2025-07-10 06:28:36.440Z10.069° NNE
|